| time (UTC) | temp C | wind direction | speed KPH | gust KPH | rain 1hr cm | rain 24hr cm | rain mn cm | humidity % | barometer mb |
| 20260504214851 | -17 | 84 | 0.0 | 3.2 | 0.00 | 0.00 | 0.00 | 1017.4 | |
| 20260504213850 | -17 | 83 | 0.0 | 1.6 | 0.00 | 0.00 | 0.00 | 1017.4 | |
| 20260504212850 | -17 | 86 | 1.6 | 3.2 | 0.00 | 0.00 | 0.00 | 1017.3 | |
| 20260504211849 | -17 | 88 | 3.2 | 4.8 | 0.00 | 0.00 | 0.00 | 1017.1 | |
| 20260504210849 | -17 | 91 | 8.0 | 11.3 | 0.00 | 0.00 | 0.00 | 1017.4 | |
| 20260504205848 | -17 | 93 | 4.8 | 8.0 | 0.00 | 0.00 | 0.00 | 1017.5 | |
| 20260504204844 | -17 | 89 | 8.0 | 11.3 | 0.00 | 0.00 | 0.00 | 1017.1 | |
| 20260504203842 | -17 | 81 | 6.4 | 9.7 | 0.00 | 0.00 | 0.00 | 1017.2 | |
| 20260504202840 | -17 | 85 | 1.6 | 4.8 | 0.00 | 0.00 | 0.00 | 1017.1 | |
| 20260504201839 | -17 | 80 | 0.0 | 1.6 | 0.00 | 0.00 | 0.00 | 1017.1 | |
| 20260504200834 | -17 | 76 | 9.7 | 14.5 | 0.00 | 0.00 | 0.00 | 1017.0 | |
| 20260504195833 | -17 | 71 | 9.7 | 12.9 | 0.00 | 0.00 | 0.00 | 1017.0 | |
| 20260504194831 | -17 | 67 | 8.0 | 11.3 | 0.00 | 0.00 | 0.00 | 1017.1 | |
| 20260504193829 | -17 | 71 | 12.9 | 17.7 | 0.00 | 0.00 | 0.00 | 1017.3 | |
| 20260504192825 | -17 | 77 | 4.8 | 8.0 | 0.00 | 0.00 | 0.00 | 1017.3 | |
| 20260504191821 | -17 | 92 | 11.3 | 16.1 | 0.00 | 0.00 | 0.00 | 1017.4 | |
| 20260504190819 | -17 | 98 | 4.8 | 11.3 | 0.00 | 0.00 | 0.00 | 1017.4 | |
| 20260504185818 | -17 | 104 | 8.0 | 11.3 | 0.00 | 0.00 | 0.00 | 1017.2 | |
| 20260504184817 | -17 | 89 | 9.7 | 12.9 | 0.00 | 0.00 | 0.00 | 1017.4 | |
| 20260504183815 | -17 | 67 | 8.0 | 12.9 | 0.00 | 0.00 | 0.00 | 1017.3 | |
| 20260504182810 | -17 | 77 | 1.6 | 8.0 | 0.00 | 0.00 | 0.00 | 1017.7 | |
| 20260504181810 | -17 | 96 | 9.7 | 11.3 | 0.00 | 0.00 | 0.00 | 1017.7 | |
| 20260504180807 | -17 | 100 | 6.4 | 9.7 | 0.00 | 0.00 | 0.00 | 1017.9 | |
| 20260504175802 | -17 | 94 | 8.0 | 11.3 | 0.00 | 0.00 | 0.00 | 1018.4 | |
| 20260504174803 | -17 | 77 | 11.3 | 12.9 | 0.00 | 0.00 | 0.00 | 1018.2 | |
| 20260504173802 | -17 | 76 | 1.6 | 3.2 | 0.00 | 0.00 | 0.00 | 1018.5 | |
| 20260504172802 | -17 | 76 | 3.2 | 9.7 | 0.00 | 0.00 | 0.00 | 1018.4 | |
| 20260504171800 | -17 | 81 | 0.0 | 3.2 | 0.00 | 0.00 | 0.00 | 1018.4 | |
| 20260504170755 | -17 | 89 | 8.0 | 11.3 | 0.00 | 0.00 | 0.00 | 1018.3 | |
| 20260504150733 | -17 | 91 | 6.4 | 12.9 | 0.00 | 0.00 | 0.00 | 1019.4 | |
| 20260504140731 | -17 | 86 | 0.0 | 0.0 | 0.00 | 0.00 | 0.00 | 1019.7 | |
| 20260504130719 | -17 | 89 | 4.8 | 9.7 | 0.00 | 0.00 | 0.00 | 1019.8 | |
| 20260504110652 | -17 | 70 | 0.0 | 0.0 | 0.00 | 0.00 | 0.00 | 1019.9 | |
| 20260504081621 | -17 | 39 | 0.0 | 0.0 | 0.00 | 0.00 | 0.00 | 1018.5 | |
| 20260504080620 | -17 | 34 | 0.0 | 0.0 | 0.00 | 0.00 | 0.00 | 1018.8 | |
| 20260504050548 | -17 | 84 | 0.0 | 0.0 | 0.00 | 0.00 | 0.00 | 1019.3 | |
| 20260504045548 | -17 | 77 | 0.0 | 0.0 | 0.00 | 0.00 | 0.00 | 1019.7 | |
| 20260504044546 | -17 | 72 | 0.0 | 0.0 | 0.00 | 0.00 | 0.00 | 1019.8 | |
| 20260504043546 | -17 | 66 | 0.0 | 0.0 | 0.00 | 0.00 | 0.00 | 1020.1 | |
| 20260504042546 | -17 | 58 | 0.0 | 0.0 | 0.00 | 0.00 | 0.00 | 1020.2 | |
| 20260504041545 | -17 | 55 | 0.0 | 0.0 | 0.00 | 0.00 | 0.00 | 1020.4 | |
| 20260504040544 | -17 | 75 | 0.0 | 0.0 | 0.00 | 0.00 | 0.00 | 1020.5 | |
| 20260504035543 | -17 | 65 | 0.0 | 0.0 | 0.00 | 0.00 | 0.00 | 1020.4 | |
| 20260504034538 | -17 | 36 | 0.0 | 0.0 | 0.00 | 0.00 | 0.00 | 1020.7 | |
| 20260504033538 | -17 | 53 | 0.0 | 0.0 | 0.00 | 0.00 | 0.00 | 1020.8 | |
| 20260504032538 | -17 | 47 | 0.0 | 0.0 | 0.00 | 0.00 | 0.00 | 1020.6 | |
| 20260504031537 | -17 | 43 | 0.0 | 0.0 | 0.00 | 0.00 | 0.00 | 1020.6 | |
| 20260504030536 | -17 | 44 | 0.0 | 0.0 | 0.00 | 0.00 | 0.00 | 1020.7 | |
| 20260504025535 | -17 | 45 | 0.0 | 0.0 | 0.00 | 0.00 | 0.00 | 1020.8 | |
| 20260504024535 | -17 | 42 | 0.0 | 0.0 | 0.00 | 0.00 | 0.00 | 1020.4 | |
| 20260504023534 | -17 | 71 | 0.0 | 0.0 | 0.00 | 0.00 | 0.00 | 1020.4 | |
| 20260504022532 | -17 | 48 | 0.0 | 0.0 | 0.00 | 0.00 | 0.00 | 1020.3 | |
| 20260504021532 | -17 | 48 | 0.0 | 0.0 | 0.00 | 0.00 | 0.00 | 1020.1 | |
| 20260504020531 | -17 | 43 | 0.0 | 0.0 | 0.00 | 0.00 | 0.00 | 1020.1 | |
| 20260504015530 | -17 | 37 | 0.0 | 0.0 | 0.00 | 0.00 | 0.00 | 1019.7 | |
| 20260504014528 | -17 | 39 | 0.0 | 0.0 | 0.00 | 0.00 | 0.00 | 1019.6 | |
| 20260504013523 | -17 | 51 | 0.0 | 0.0 | 0.00 | 0.00 | 0.00 | 1019.7 | |
| 20260504012523 | -17 | 51 | 0.0 | 0.0 | 0.00 | 0.00 | 0.00 | 1019.6 | |
| 20260504011523 | -17 | 63 | 0.0 | 0.0 | 0.00 | 0.00 | 0.00 | 1019.5 | |
| 20260504010521 | -17 | 121 | 0.0 | 0.0 | 0.00 | 0.00 | 0.00 | 1019.6 | |
| 20260504005520 | -17 | 216 | 0.0 | 0.0 | 0.00 | 0.00 | 0.00 | 1019.4 | |
| 20260504004515 | -17 | 221 | 0.0 | 0.0 | 0.00 | 0.00 | 0.00 | 1019.3 | |
| 20260504003514 | -17 | 56 | 0.0 | 0.0 | 0.00 | 0.00 | 0.00 | 1019.4 | |
| 20260504002514 | -17 | 111 | 0.0 | 0.0 | 0.00 | 0.00 | 0.00 | 1019.4 | |
| 20260504001515 | -17 | 61 | 0.0 | 0.0 | 0.00 | 0.00 | 0.00 | 1019.1 | |
| 20260504000514 | -17 | 128 | 0.0 | 0.0 | 0.00 | 0.00 | 0.00 | 1019.0 | |
| 20260503235515 | -17 | 108 | 0.0 | 0.0 | 0.00 | 0.00 | 0.00 | 1018.8 | |
| 20260503234515 | -17 | 116 | 0.0 | 1.6 | 0.00 | 0.00 | 0.00 | 1018.8 | |
| 20260503233509 | -17 | 126 | 0.0 | 1.6 | 0.00 | 0.00 | 0.00 | 1018.6 | |
| 20260503232508 | -17 | 58 | 1.6 | 3.2 | 0.00 | 0.00 | 0.00 | 1018.6 | |
| 20260503231503 | -17 | 65 | 0.0 | 1.6 | 0.00 | 0.00 | 0.00 | 1018.2 | |
| 20260503230502 | -17 | 94 | 0.0 | 0.0 | 0.00 | 0.00 | 0.00 | 1018.3 | |
| 20260503225503 | -17 | 98 | 4.8 | 4.8 | 0.00 | 0.00 | 0.00 | 1018.2 | |
| 20260503224501 | -17 | 87 | 11.3 | 14.5 | 0.00 | 0.00 | 0.00 | 1018.1 | |
| 20260503223457 | -17 | 96 | 3.2 | 8.0 | 0.00 | 0.00 | 0.00 | 1018.2 | |
| 20260503222456 | -17 | 129 | 8.0 | 11.3 | 0.00 | 0.00 | 0.00 | 1018.0 | |
| 20260503221452 | -17 | 131 | 11.3 | 16.1 | 0.00 | 0.00 | 0.00 | 1017.9 | |
| 20260503220451 | -17 | 72 | 11.3 | 16.1 | 0.00 | 0.00 | 0.00 | 1017.8 | |
| 20260503215451 | -17 | 94 | 14.5 | 16.1 | 0.00 | 0.00 | 0.00 | 1017.8 |